Home   Weather   Daly City   Past weeks

Flag for USA Past Weather in Daly City, California, USA — Yesterday and Last 2 Weeks

Now
75 °F

Sunny.


Feels Like: 77 °F
Forecast: 52 / 69 °F
Wind: 15 mph from West

Location: San Francisco International Airport

Current Time: Apr 29, 2017 at 2:55:47 pm

Latest Report: Apr 29, 2017 at 1:56 pm


Visibility: 10 mi

Pressure: 30.11 "Hg

Humidity: 27%

Dew Point: 39 °F

Location of Daly CityLocation

Past Weather in Daly City — Graph

°F

Daly City Temperature Yesterday

Maximum temperature yesterday: 67 °F (at 12:56 pm)
Minimum temperature yesterday: 49 °F (at 4:56 am)
Average temperature yesterday: 58 °F

High & Low Weather Summary for the Past Weeks

 TemperatureHumidityPressure
High74 °F (Apr 29, 12:56 pm)97% (Apr 17, 5:56 am)30.32 "Hg (Apr 17, 5:56 am)
Low47 °F (Apr 15, 5:56 am)27% (Apr 29, 12:56 am)29.90 "Hg (Apr 16, 5:56 am)
Average58 °F70%30.08 "Hg
* Reported Apr 14 12:56 pm — Apr 29 12:56 pm, Daly City, Weather by CustomWeather, © 2017

Note: Actual official high and low records may vary slightly from our data, if they occured in-between our weather recording intervals... More about our weather records

Advertising

Daly City Weather History for the Previous 24 Hours

Scroll right to see more
 ConditionsComfort  
Time TempWeatherWind HumidityBarometerVisibility
12:56 pm
Sat, Apr 29
74 °FSunny.10 mph28%30.12 "Hg10 mi
11:56 am72 °FSunny.14 mph29%30.14 "Hg10 mi
10:56 am71 °FSunny.12 mph31%30.13 "Hg10 mi
9:56 am69 °FSunny.15 mph30%30.13 "Hg10 mi
8:56 am66 °FSunny.8 mph39%30.12 "Hg10 mi
7:56 am64 °FPassing clouds.9 mph41%30.11 "Hg10 mi
6:56 am63 °FPassing clouds.14 mph37%30.08 "Hg10 mi
5:56 am62 °FPassing clouds.12 mph52%30.07 "Hg10 mi
4:56 am57 °FClear.No wind62%30.07 "Hg10 mi
3:56 am61 °FClear.5 mph58%30.06 "Hg10 mi
2:56 am64 °FClear.10 mph35%30.05 "Hg10 mi
1:56 am66 °FClear.13 mph28%30.05 "Hg10 mi
12:56 am66 °FClear.16 mph27%30.04 "Hg10 mi
11:56 pm
Fri, Apr 28
57 °FClear.9 mph58%30.03 "Hg10 mi
10:56 pm58 °FClear.10 mph58%30.03 "Hg10 mi
9:56 pm56 °FClear.16 mph65%30.02 "Hg10 mi
8:56 pm58 °FClear.17 mph58%30.01 "Hg10 mi
7:56 pm57 °FClear.21 mph62%30.00 "Hg10 mi
6:56 pm59 °FSunny.22 mph58%30.00 "Hg10 mi
5:56 pm62 °FSunny.24 mph48%30.01 "Hg10 mi
4:56 pm63 °FPassing clouds.26 mph45%30.00 "Hg10 mi
3:56 pm65 °FPassing clouds.23 mph44%30.02 "Hg10 mi
2:56 pm65 °FScattered clouds.23 mph47%30.04 "Hg10 mi
Weather by CustomWeather, © 2017

See weather overviewHow to use our weather pages